Theta_e
291 293 292 291 295 296 296 297 297 296 295 295 292 293 292 290 293 292 289 288 289 288 290 290 290 289 288 288 288 288 288 288 288 288 288 287 286 286 286 286 286 286 286 285
292 292 290 295 295 296 296 296 297 296 293 293 292 292 290 289 288 289 288 287 287 288 288 289 289 289 289 288 288 287 288 288 288 288 288 287 287 287 286 286 286 286 286 286
291 293 292 295 294 297 297 297 298 297 295 291 292 295 289 289 288 288 287 287 287 287 287 287 288 289 289 288 288 288 287 287 288 288 288 288 287 287 287 287 287 287 287 286
290 291 293 294 295 295 298 297 297 297 299 295 296 294 297 289 288 288 288 286 287 287 287 288 288 288 289 289 288 288 288 287 287 287 287 288 287 287 287 287 287 287 287 287
291 291 293 295 295 295 299 297 299 300 298 294 296 290 293 291 290 290 288 287 287 287 286 287 288 289 289 289 289 288 288 288 287 287 287 287 287 287 287 287 287 287 287 287
289 289 290 292 292 295 296 297 297 296 296 291 291 291 292 294 294 292 290 289 288 287 287 288 289 289 288 288 288 288 288 288 288 288 287 287 287 287 287 287 287 287 287 287
291 290 289 289 294 293 296 298 290 292 292 294 293 290 294 292 292 292 292 290 288 287 287 287 288 288 288 288 288 288 288 288 288 288 288 288 288 288 288 287 287 287 287 287
292 294 290 289 291 293 294 295 291 286 293 292 289 292 295 291 291 292 291 290 289 288 287 287 288 289 289 289 288 288 289 288 288 288 288 288 288 288 288 288 288 287 287 287
292 295 289 289 289 290 290 294 290 281 271 286 291 291 293 290 294 293 292 290 289 288 287 287 288 289 289 289 289 288 288 288 289 289 289 288 288 288 288 288 288 288 287 287
294 293 289 289 289 288 290 290 290 284 288 287 292 292 296 294 293 294 293 292 290 288 288 287 288 288 290 290 289 289 288 288 288 288 288 288 288 288 288 288 288 288 288 288
292 292 290 289 288 289 288 289 289 288 289 290 289 294 293 295 292 293 294 293 292 289 288 288 288 288 290 291 290 289 289 288 288 288 288 288 288 288 288 288 288 288 288 288
292 290 287 290 288 287 288 289 290 291 288 287 289 291 293 293 292 291 292 293 291 290 289 288 288 288 289 290 290 290 289 289 289 289 288 288 288 288 288 288 289 288 288 288
292 289 288 294 291 287 287 288 289 283 283 285 290 295 290 289 291 290 289 288 290 291 288 287 288 288 288 289 290 290 290 290 290 290 289 288 288 288 289 289 289 288 288 288
293 288 294 299 297 290 288 288 289 288 285 289 292 295 292 291 289 290 289 288 287 289 290 289 288 288 288 289 290 290 291 291 290 290 289 289 289 289 289 289 289 288 288 287
289 289 290 288 291 287 289 290 289 290 292 293 296 293 294 294 291 291 290 289 288 288 288 289 289 289 289 289 289 291 291 291 290 290 289 289 289 289 289 289 288 288 288 287
287 286 286 288 284 287 290 290 289 290 291 291 292 292 293 291 289 289 290 288 289 289 289 289 289 290 289 289 290 291 291 291 291 289 289 289 289 289 289 288 288 288 287 287
287 286 290 294 282 283 290 289 291 292 289 292 292 295 294 291 289 290 290 289 289 289 289 288 288 289 289 290 291 291 292 292 290 289 289 289 289 288 288 288 287 287 287 286
285 288 291 292 283 289 296 288 291 292 293 291 293 295 294 293 292 289 289 290 290 289 288 288 289 289 290 291 291 292 292 291 289 289 289 289 288 288 288 287 287 286 285 285
286 288 290 294 287 293 295 286 288 289 294 292 291 292 293 290 289 287 286 288 290 288 288 288 289 290 290 291 292 291 290 289 288 288 289 289 288 288 287 286 286 285 284 283
284 282 291 276 288 295 299 294 287 289 294 294 292 293 293 287 289 293 292 288 287 286 288 288 289 289 289 291 291 290 288 288 288 289 289 288 287 286 286 285 284 283 282 281
282 280 288 292 292 293 293 286 290 294 299 295 293 293 290 290 292 291 289 287 288 288 287 288 289 289 289 290 289 288 289 288 289 288 288 286 286 286 285 284 282 281 279 277
289 287 286 288 292 293 290 289 296 299 298 293 291 291 290 290 290 288 287 287 285 283 285 288 288 288 289 289 289 288 288 289 288 287 286 286 285 284 283 281 279 277 276 275
296 293 296 292 294 292 287 294 292 291 294 292 291 289 290 289 288 287 287 286 285 284 285 287 288 287 288 288 289 289 289 288 287 286 286 285 283 281 280 278 277 276 274 272
291 292 292 295 295 293 293 289 288 289 289 290 289 290 288 288 288 286 286 285 285 285 285 287 287 285 286 288 288 288 287 286 286 285 283 282 280 278 277 276 275 273 271 270
299 296 294 295 295 296 296 295 292 289 288 288 289 288 288 288 287 287 286 285 285 285 285 286 286 286 286 287 287 286 286 286 284 283 281 279 277 276 275 273 272 270 269 269
299 299 299 298 298 297 298 298 290 290 291 290 289 288 287 287 288 286 286 286 286 285 285 285 286 286 285 285 285 285 284 284 283 281 278 277 276 274 272 271 270 269 268 267
Wind_Speed
7 10 6 7 5 5 8 6 5 2 3 4 4 1 7 6 5 7 6 6 5 5 5 7 6 5 4 4 4 5 7 8 6 7 9 13 15 15 16 16 17 19 20 21
7 6 5 2 6 9 7 7 3 1 3 3 3 6 8 6 5 7 7 7 7 5 7 10 10 11 9 8 6 5 5 6 7 8 9 8 8 11 13 13 14 15 16 18
6 0 2 4 6 6 5 5 2 2 2 3 2 6 6 6 6 7 8 9 7 9 8 11 14 15 14 13 11 8 6 4 4 5 6 5 6 7 8 9 11 12 13 15
5 4 2 3 4 2 3 2 3 4 3 1 4 4 5 6 9 9 11 10 10 9 8 15 18 18 19 18 14 12 10 7 6 4 3 3 3 3 3 4 6 8 10 11
0 3 4 4 1 1 3 2 3 2 3 3 1 3 6 3 8 14 15 13 12 11 9 14 22 22 20 17 19 16 13 12 10 7 5 3 3 2 2 3 5 6 7 9
3 1 2 1 1 1 2 3 4 3 3 3 4 4 5 6 9 5 14 15 15 13 12 22 26 22 21 20 19 20 18 16 13 12 11 10 9 7 7 6 7 7 8 9
1 0 0 1 3 2 3 3 3 5 4 4 2 2 11 7 8 8 13 15 15 13 12 16 21 23 23 23 23 21 20 20 17 17 16 14 13 12 12 11 11 12 12 11
5 5 5 2 2 4 2 4 4 5 2 4 4 6 6 6 7 7 7 10 10 13 13 16 25 30 28 26 24 23 22 21 20 20 19 18 18 18 17 16 15 16 15 14
4 2 1 1 1 2 3 3 3 7 1 3 3 7 10 6 7 7 10 8 12 15 15 17 24 32 33 29 28 27 26 25 23 23 22 21 20 20 20 18 18 19 18 17
5 2 1 0 1 2 2 5 3 3 0 5 5 6 7 5 10 9 10 13 12 11 12 16 25 33 38 35 31 28 28 28 25 24 23 23 22 21 21 20 20 19 19 19
4 3 1 2 8 8 3 3 3 3 4 5 2 6 8 10 10 15 16 14 12 13 15 16 26 30 39 38 35 31 30 29 28 27 25 23 22 21 20 20 20 20 20 20
7 5 4 7 0 1 2 5 6 4 6 4 2 9 5 9 7 9 12 13 10 11 13 17 22 26 33 39 38 36 33 31 29 28 26 26 24 21 22 21 22 21 22 21
9 3 2 7 1 2 5 6 4 3 3 7 6 8 2 4 8 9 10 10 11 12 10 10 18 25 30 36 40 40 37 35 32 29 27 27 25 24 24 23 22 21 21 22
9 4 8 12 9 6 6 7 13 7 4 5 14 23 10 9 11 10 11 10 10 13 14 13 14 23 28 35 40 41 40 38 33 30 27 28 26 25 25 23 22 21 21 21
5 9 6 5 3 5 6 7 17 18 23 13 23 23 25 23 15 18 13 8 9 12 11 15 15 21 27 31 36 41 41 39 34 30 28 28 26 23 22 23 22 22 22 22
3 4 3 5 1 5 9 13 14 25 15 22 22 31 16 6 5 8 14 12 13 15 15 16 15 21 24 29 37 41 40 38 32 29 28 25 23 22 23 22 21 21 22 22
9 6 4 15 2 6 13 22 25 20 14 21 19 40 7 15 18 19 17 14 15 17 16 14 16 25 28 34 39 39 39 34 29 27 26 24 21 22 21 20 21 22 22 22
8 7 3 3 2 9 10 9 16 29 29 26 29 32 17 20 18 13 13 16 19 16 13 14 19 23 32 36 36 35 32 29 25 25 23 22 20 20 19 20 21 21 20 20
1 5 4 8 7 14 23 7 10 9 23 28 30 35 33 10 2 9 13 17 20 15 16 23 31 34 33 35 31 28 27 23 23 23 23 20 18 18 19 20 19 19 18 18
2 3 6 3 7 22 40 10 9 8 22 22 29 33 27 8 9 19 18 17 18 19 24 25 28 28 29 32 29 28 25 23 23 23 20 17 17 17 17 16 15 15 15 16
3 2 16 18 8 16 6 10 12 8 9 12 19 26 10 12 17 5 2 10 20 19 27 25 25 30 31 28 30 29 25 24 22 18 16 16 15 14 13 13 13 12 12 13
13 10 7 4 9 27 8 8 22 19 18 6 8 11 14 20 16 11 7 7 9 8 22 26 28 28 27 29 30 27 25 20 18 15 14 13 12 11 11 10 9 9 10 12
19 17 15 14 10 5 7 12 12 6 6 5 5 7 15 14 14 12 11 9 9 15 22 30 30 27 26 29 29 25 21 18 15 13 13 10 9 8 8 7 7 7 8 11
10 15 12 22 27 27 21 11 7 7 10 5 7 6 9 12 13 13 7 7 9 16 19 30 28 25 26 26 24 20 17 16 15 13 11 9 8 7 5 4 4 6 8 9
20 13 21 21 27 21 33 19 18 11 9 10 8 7 12 11 7 12 10 8 9 16 21 29 27 26 29 26 23 20 17 17 15 12 10 9 7 5 4 3 3 5 7 8
20 25 18 19 21 18 35 20 15 20 22 19 15 12 10 14 16 11 11 13 17 18 24 25 27 25 23 23 22 20 19 17 15 13 12 10 8 7 5 3 5 5 4 6
Wind_Direction
10 61 31 330 1 94 110 95 101 315 309 45 13 320 243 247 233 260 258 247 225 232 226 194 190 193 184 144 119 107 107 104 116 107 92 77 70 72 68 62 58 54 48 46
40 52 320 15 44 68 75 99 66 53 30 65 323 278 251 241 244 224 234 239 229 219 205 209 210 210 205 196 179 155 128 119 105 94 88 89 87 72 65 59 55 50 45 41
100 162 352 82 41 58 32 96 155 135 49 82 17 283 239 238 225 225 226 226 221 213 212 213 210 212 213 211 205 199 175 148 131 117 113 112 95 82 71 57 51 44 38 35
79 343 77 71 75 3 65 7 76 103 56 190 74 277 262 226 245 230 232 218 223 214 214 217 216 214 215 214 209 211 205 198 197 184 160 125 107 85 58 34 33 33 29 26
22 28 30 49 9 331 138 82 52 76 85 65 5 70 267 97 251 239 232 228 224 218 207 216 220 221 220 216 217 215 216 216 218 221 223 225 234 248 267 323 344 357 4 3
104 84 76 76 356 347 135 84 56 55 65 21 227 131 266 194 214 228 222 222 219 214 215 219 222 220 220 218 220 220 221 225 226 230 233 237 244 257 272 293 305 313 320 333
342 216 313 136 104 8 63 57 351 357 5 223 164 55 247 241 226 214 208 217 214 209 210 214 217 217 219 218 218 220 224 229 228 233 237 242 251 257 265 271 280 289 303 314
156 301 174 163 159 181 157 145 155 215 232 265 353 239 248 218 222 214 217 213 205 207 208 211 216 219 221 221 221 222 225 231 231 234 238 241 247 250 258 266 273 281 285 295
131 256 6 25 84 128 196 182 135 99 76 36 227 278 290 229 256 219 220 212 213 209 206 208 214 220 223 224 223 224 225 231 232 234 238 241 245 249 256 264 268 275 280 287
195 77 256 137 62 23 183 152 72 2 278 288 279 282 241 249 228 221 223 219 218 210 208 209 208 214 221 223 224 226 228 232 234 237 239 242 246 251 258 263 268 276 285 286
137 106 284 41 203 179 151 205 65 128 149 192 260 256 217 222 204 207 221 222 212 208 209 207 210 213 219 222 224 226 228 231 234 237 240 243 246 251 258 263 270 277 285 287
188 143 173 198 112 46 249 219 167 139 232 229 177 264 251 230 226 207 224 223 217 210 209 209 208 208 215 222 224 226 229 232 235 240 242 245 249 251 257 264 274 280 282 283
182 234 26 332 16 8 216 199 169 96 65 200 157 259 272 250 246 236 239 232 222 216 207 197 197 205 213 220 224 226 228 232 236 238 242 245 248 252 258 266 274 277 280 281
143 160 181 231 216 132 184 198 189 154 144 197 221 252 260 244 231 235 235 235 227 218 210 204 206 210 212 217 223 226 230 233 236 238 243 246 248 252 259 266 272 279 284 284
160 209 188 240 205 197 211 193 185 206 219 203 254 231 241 236 222 224 222 229 217 224 212 207 209 210 211 215 220 227 233 235 236 238 243 244 250 256 263 267 274 280 281 282
217 233 125 271 275 247 249 226 198 221 230 247 266 271 245 260 221 217 220 213 217 225 221 217 214 211 209 211 218 225 230 234 233 237 241 245 249 258 263 264 271 278 280 279
161 147 123 259 58 328 280 212 212 221 207 218 231 247 228 239 227 226 227 216 220 225 218 208 208 208 211 214 219 222 226 229 231 234 239 243 250 257 259 268 275 277 279 278
156 154 170 253 59 251 254 177 200 219 226 215 243 257 249 240 246 230 219 211 227 224 214 211 209 207 216 220 220 221 221 226 227 228 232 242 249 256 265 272 275 278 278 277
239 150 201 223 200 285 273 176 168 179 253 219 228 247 251 252 357 257 222 216 222 213 204 208 210 214 216 217 216 216 218 218 218 223 232 242 252 264 271 274 277 275 271 274
73 45 205 116 196 241 253 177 164 100 270 183 214 237 241 137 242 257 239 213 220 207 203 204 216 216 215 210 203 204 209 212 215 226 236 250 259 264 269 270 270 271 273 275
164 251 219 227 239 265 143 140 132 168 264 179 201 229 190 195 220 233 198 197 212 207 196 205 198 197 201 192 190 195 203 209 221 229 241 250 257 259 263 263 266 270 274 279
181 175 205 206 220 249 130 141 205 236 277 187 194 212 193 215 234 237 208 202 178 165 172 185 182 189 187 183 185 194 202 212 219 230 241 245 250 252 252 258 264 272 287 292
232 216 229 207 230 245 237 244 229 262 241 228 216 202 203 215 221 215 218 194 181 173 173 179 180 178 179 181 188 194 206 207 212 222 227 231 235 240 248 256 267 284 289 293
226 226 228 246 249 255 264 250 239 206 226 251 241 223 186 209 215 214 201 190 178 171 177 179 180 175 175 182 190 197 197 199 202 202 204 210 216 225 241 260 271 279 284 298
233 209 230 252 249 263 263 250 238 249 259 245 233 206 208 223 226 206 203 190 181 173 169 175 175 178 182 183 187 191 191 189 185 185 186 193 197 205 208 220 268 287 291 312
231 238 233 240 247 236 257 261 211 221 232 231 228 233 220 201 223 195 199 192 176 170 164 169 177 178 172 176 179 183 186 187 184 176 178 181 178 182 186 211 245 256 305 319